This is the latest recevied weather packets stored in our database for station/object KB1JLI. If no packets are shown the sender has not sent any weather packets the latest 10 day(s).
| Time | Temp. | Humidity | Pressure | Rain* | Wind** | Luminosity | Snow |
|---|---|---|---|---|---|---|---|
| 1777914399 | 21.67° C | 31% | 1007.4 hPa | 0 mm | - | 687 W/m² | - |
| 1777914097 | 21.11° C | 32% | 1007.4 hPa | 0 mm | - | 685 W/m² | - |
| 1777913793 | 20.56° C | 31% | 1007.3 hPa | 0 mm | - | 692 W/m² | - |
| 1777913489 | 20.56° C | 31% | 1007.1 hPa | 0 mm | - | 688 W/m² | - |
| 1777913186 | 20.56° C | 33% | 1007.5 hPa | 0 mm | - | 697 W/m² | - |
| 1777912882 | 20.56° C | 31% | 1007.8 hPa | 0 mm | - | 696 W/m² | - |
| 1777912578 | 20.56° C | 31% | 1007.5 hPa | 0 mm | - | 693 W/m² | - |
| 1777912270 | 20.56° C | 32% | 1007.5 hPa | 0 mm | - | 691 W/m² | - |
| 1777911965 | 20.56° C | 31% | 1007.4 hPa | 0 mm | - | 696 W/m² | - |
| 1777911662 | 21.11° C | 31% | 1007.5 hPa | 0 mm | - | 695 W/m² | - |
| 1777911357 | 21.11° C | 31% | 1007.5 hPa | 0 mm | - | 688 W/m² | - |
| 1777911056 | 20.56° C | 31% | 1007.5 hPa | 0 mm | - | 690 W/m² | - |
| 1777910753 | 20° C | 32% | 1007.5 hPa | 0 mm | - | 687 W/m² | - |
| 1777910450 | 20.56° C | 31% | 1007.6 hPa | 0 mm | - | 687 W/m² | - |
| 1777910146 | 20° C | 32% | 1007.9 hPa | 0 mm | - | 681 W/m² | - |
| 1777909844 | 20.56° C | 32% | 1007.7 hPa | 0 mm | - | 674 W/m² | - |
| 1777909540 | 20° C | 33% | 1007.8 hPa | 0 mm | - | 673 W/m² | - |
| 1777909237 | 20.56° C | 32% | 1008.1 hPa | 0 mm | - | 673 W/m² | - |
| 1777908936 | 20° C | 33% | 1007.9 hPa | 0 mm | - | 680 W/m² | - |
| 1777908633 | 18.89° C | 34% | 1008.3 hPa | 0 mm | - | 656 W/m² | - |
| 1777908330 | 19.44° C | 33% | 1008.3 hPa | 0 mm | - | 692 W/m² | - |
| 1777908026 | 19.44° C | 34% | 1008.5 hPa | 0 mm | - | 517 W/m² | - |
| 1777907722 | 19.44° C | 34% | 1008.6 hPa | 0 mm | - | 582 W/m² | - |
| 1777907416 | 19.44° C | 34% | 1008.6 hPa | 0 mm | - | 677 W/m² | - |
| 1777907114 | 19.44° C | 36% | 1008.8 hPa | 0 mm | - | 652 W/m² | - |
* Rain latest hour (hover to see other rain measurements)
** Current wind speed in m/s (hover to see current wind gust speed)